,,PA_Meas_PMT16A,,PR_Meas_QMR101_102,,RH_Meas_QMH101,,SR_Meas_QMS101,,TA_Meas_QMH101,,GenWind,,GenWind,
time,status,PA,status,PR,status,RH,status,SR,status,TA,status,DirAvg,status,SpdAvg,
2014-07-10, 06:39:04,VALID,916.032,VALID,0,VALID,92.8532,VALID,18.8022,VALID,19.4118,VALID,167,VALID,1.30156,
2014-07-10, 06:40:04,VALID,916.057,VALID,0,VALID,92.8989,VALID,20.1989,VALID,19.4103,VALID,160,VALID,1.02031,
2014-07-10, 06:41:04,VALID,916.064,VALID,0,VALID,92.9981,VALID,22.1329,VALID,19.4313,VALID,157,VALID,0.851172,
2014-07-10, 06:42:04,VALID,916.087,VALID,0,VALID,93.1276,VALID,24.1743,VALID,19.4118,VALID,159,VALID,0.888281,
2014-07-10, 06:43:04,VALID,916.105,VALID,0,VALID,93.2115,VALID,25.6784,VALID,19.3908,VALID,161,VALID,1.39961,
2014-07-10, 06:44:04,VALID,916.108,VALID,0,VALID,93.2877,VALID,26.7528,VALID,19.3923,VALID,161,VALID,1.05547,
2014-07-10, 06:45:04,VALID,916.183,VALID,0,VALID,93.3945,VALID,27.5049,VALID,19.4118,VALID,159,VALID,0.571875,
2014-07-10, 06:46:04,VALID,916.219,VALID,0,VALID,93.4707,VALID,28.3645,VALID,19.4118,VALID,159,VALID,0.608203,
2014-07-10, 06:47:04,VALID,916.243,VALID,0,VALID,93.4478,VALID,29.5463,VALID,19.4103,VALID,159,VALID,0.448438,
2014-07-10, 06:48:04,VALID,916.262,VALID,0,VALID,93.4478,VALID,31.1579,VALID,19.4703,VALID,159,VALID,0.361328,
2014-07-10, 06:49:04,VALID,916.292,VALID,0,VALID,93.3792,VALID,33.0919,VALID,19.4493,VALID,159,VALID,0.283594,
2014-07-10, 06:50:04,VALID,916.276,VALID,0,VALID,93.3487,VALID,35.563,VALID,19.5093,VALID,159,VALID,0.246484,
2014-07-10, 06:51:04,VALID,916.302,VALID,0,VALID,93.364,VALID,38.2491,VALID,19.5483,VALID,159,VALID,0.642578,
2014-07-10, 06:52:04,VALID,916.302,VALID,0,VALID,93.0895,VALID,41.2574,VALID,19.5468,VALID,158,VALID,0.764453,
2014-07-10, 06:53:04,VALID,916.345,VALID,0,VALID,92.9828,VALID,44.1583,VALID,19.5663,VALID,159,VALID,0.289844,
2014-07-10, 06:54:04,VALID,916.377,VALID,0,VALID,92.7922,VALID,44.2658,VALID,19.6263,VALID,158,VALID,0.730859,
2014-07-10, 06:55:04,VALID,916.357,VALID,0,VALID,92.6626,VALID,43.6211,VALID,19.6443,VALID,154,VALID,0.709766,
2014-07-10, 06:56:04,VALID,916.363,VALID,0,VALID,92.6321,VALID,44.0509,VALID,19.6638,VALID,159,VALID,0.701563,
2014-07-10, 06:57:04,VALID,916.397,VALID,0,VALID,92.3806,VALID,44.6955,VALID,19.6833,VALID,160,VALID,0.8125,
2014-07-10, 06:58:04,VALID,916.442,VALID,0,VALID,92.2128,VALID,45.3402,VALID,19.7028,VALID,160,VALID,0.824219,
2014-07-10, 06:59:04,VALID,916.469,VALID,0,VALID,92.007,VALID,45.2327,VALID,19.7433,VALID,160,VALID,0.716797,
2014-07-10, 07:00:04,VALID,916.506,VALID,0,VALID,91.8622,VALID,44.3732,VALID,19.7418,VALID,154,VALID,0.9625,
2014-07-10, 07:01:04,VALID,916.524,VALID,0,VALID,91.6716,VALID,42.7616,VALID,19.7613,VALID,154,VALID,0.701563,
2014-07-10, 07:02:04,VALID,916.551,VALID,0,VALID,91.5191,VALID,40.6128,VALID,19.8003,VALID,152,VALID,1.07617,
2014-07-10, 07:03:04,VALID,916.559,VALID,0,VALID,90.955,VALID,39.6458,VALID,19.8018,VALID,149,VALID,0.921094,
2014-07-10, 07:04:04,VALID,916.572,VALID,0,VALID,91.0007,VALID,39.4309,VALID,19.8588,VALID,149,VALID,0.619141,
2014-07-10, 07:05:04,VALID,916.606,VALID,0,VALID,91.0922,VALID,39.3235,VALID,19.8978,VALID,149,VALID,0.453906,
2014-07-10, 07:06:04,VALID,916.629,VALID,0,VALID,91.3743,VALID,39.3235,VALID,19.8978,VALID,149,VALID,0.614453,
2014-07-10, 07:07:04,VALID,916.677,VALID,0,VALID,91.359,VALID,39.216,VALID,19.8978,VALID,149,VALID,0.617969,
2014-07-10, 07:08:04,VALID,916.669,VALID,0,VALID,91.5953,VALID,38.8937,VALID,19.9188,VALID,149,VALID,0.505469,
2014-07-10, 07:09:04,VALID,916.685,VALID,0,VALID,91.4886,VALID,38.4639,VALID,19.8978,VALID,149,VALID,0.853125,
2014-07-10, 07:10:04,VALID,916.676,VALID,0,VALID,91.603,VALID,38.0342,VALID,19.8978,VALID,149,VALID,0.479688,
2014-07-10, 07:11:04,VALID,916.679,VALID,0,VALID,91.1837,VALID,38.2491,VALID,19.8798,VALID,149,VALID,1.02109,
2014-07-10, 07:12:04,VALID,916.672,VALID,0,VALID,91.2218,VALID,39.216,VALID,19.8978,VALID,149,VALID,1.05391,
2014-07-10, 07:13:04,VALID,916.664,VALID,0,VALID,91.077,VALID,40.5053,VALID,19.8978,VALID,125,VALID,0.938672,
2014-07-10, 07:14:04,VALID,916.681,VALID,0,VALID,91.1837,VALID,42.1169,VALID,19.9173,VALID,102,VALID,0.586719,
2014-07-10, 07:15:04,VALID,916.652,VALID,0,VALID,91.4352,VALID,44.1583,VALID,19.9368,VALID,104,VALID,0.360938,
2014-07-10, 07:16:04,VALID,916.648,VALID,0,VALID,90.9702,VALID,46.9518,VALID,19.9578,VALID,113,VALID,0.563281,
2014-07-10, 07:17:04,VALID,916.657,VALID,0,VALID,91.0007,VALID,50.175,VALID,19.9563,VALID,113,VALID,0.742969,
2014-07-10, 07:18:04,VALID,916.681,VALID,0,VALID,90.9702,VALID,53.5057,VALID,19.9173,VALID,133,VALID,0.546875,
2014-07-10, 07:19:04,VALID,916.653,VALID,0,VALID,91.1227,VALID,56.4066,VALID,19.9368,VALID,133,VALID,0.710156,
2014-07-10, 07:20:04,VALID,916.648,VALID,0,VALID,91.237,VALID,58.5554,VALID,19.9383,VALID,127,VALID,0.896484,
2014-07-10, 07:21:04,VALID,916.665,VALID,0,VALID,91.3209,VALID,59.8447,VALID,19.9173,VALID,137,VALID,1.51172,
2014-07-10, 07:22:04,VALID,916.673,VALID,0,VALID,91.1532,VALID,60.2745,VALID,19.8978,VALID,129,VALID,0.753906,
2014-07-10, 07:23:04,VALID,916.674,VALID,0,VALID,91.359,VALID,59.9522,VALID,19.9173,VALID,142,VALID,0.846875,
2014-07-10, 07:24:04,VALID,916.708,VALID,0,VALID,91.3209,VALID,58.9852,VALID,19.9383,VALID,138,VALID,0.661328,
2014-07-10, 07:25:04,VALID,916.708,VALID,0,VALID,91.3666,VALID,57.2661,VALID,19.9383,VALID,133,VALID,0.770312,
2014-07-10, 07:26:04,VALID,916.732,VALID,0,VALID,91.2904,VALID,54.795,VALID,19.9773,VALID,125,VALID,1.02266,
2014-07-10, 07:27:04,VALID,916.779,VALID,0,VALID,91.1608,VALID,52.0015,VALID,19.9758,VALID,129,VALID,1.12617,
2014-07-10, 07:28:04,VALID,916.756,VALID,0,VALID,90.9016,VALID,49.8527,VALID,19.9968,VALID,142,VALID,1.27461,
2014-07-10, 07:29:04,VALID,916.809,VALID,0,VALID,90.7644,VALID,48.7783,VALID,19.9758,VALID,162,VALID,1.29531,
2014-07-10, 07:30:04,VALID,916.876,VALID,0,VALID,90.6958,VALID,48.456,VALID,19.9968,VALID,168,VALID,1.11719,
2014-07-10, 07:31:04,VALID,916.869,VALID,0,VALID,90.4213,VALID,49.5304,VALID,20.0163,VALID,153,VALID,1.17578,
2014-07-10, 07:32:04,VALID,916.908,VALID,0,VALID,90.0935,VALID,51.5718,VALID,20.0163,VALID,155,VALID,1.46211,
2014-07-10, 07:33:04,VALID,916.905,VALID,0,VALID,90.0554,VALID,53.5057,VALID,20.0343,VALID,161,VALID,1.52617,
2014-07-10, 07:34:04,VALID,916.922,VALID,0,VALID,90.124,VALID,55.0099,VALID,20.0749,VALID,187,VALID,0.894922,
2014-07-10, 07:35:04,VALID,916.911,VALID,0,VALID,90.063,VALID,56.2992,VALID,20.0749,VALID,183,VALID,1.3332,
2014-07-10, 07:36:04,VALID,916.917,VALID,0,VALID,90.1012,VALID,56.8364,VALID,20.0749,VALID,163,VALID,0.565234,
2014-07-10, 07:37:04,VALID,916.911,VALID,0,VALID,90.4518,VALID,57.481,VALID,20.1334,VALID,162,VALID,0.626953,
2014-07-10, 07:38:04,VALID,916.906,VALID,0,VALID,90.3527,VALID,58.448,VALID,20.0944,VALID,158,VALID,1.38906,
2014-07-10, 07:39:04,VALID,916.914,VALID,0,VALID,90.4899,VALID,59.8447,VALID,20.1334,VALID,175,VALID,0.726953,
2014-07-10, 07:40:04,VALID,916.921,VALID,0,VALID,90.3527,VALID,61.3489,VALID,20.0944,VALID,177,VALID,1.77617,
2014-07-10, 07:41:04,VALID,916.938,VALID,0,VALID,90.4899,VALID,63.7126,VALID,20.0944,VALID,169,VALID,1.6125,
2014-07-10, 07:42:04,VALID,916.94,VALID,0,VALID,90.6195,VALID,66.721,VALID,20.0944,VALID,181,VALID,1.06406,
2014-07-10, 07:43:04,VALID,916.948,VALID,0,VALID,90.7415,VALID,69.9442,VALID,20.1139,VALID,160,VALID,0.794531,
2014-07-10, 07:44:04,VALID,916.935,VALID,0,VALID,90.8178,VALID,73.3823,VALID,20.0944,VALID,168,VALID,1.06484,
2014-07-10, 07:45:04,VALID,916.967,VALID,0,VALID,90.4213,VALID,77.2502,VALID,20.1123,VALID,182,VALID,0.494922,
2014-07-10, 07:46:04,VALID,916.963,VALID,0,VALID,89.8953,VALID,81.0106,VALID,20.1334,VALID,176,VALID,1.2582,
2014-07-10, 07:47:04,VALID,916.95,VALID,0,VALID,89.9487,VALID,85.4157,VALID,20.2309,VALID,180,VALID,0.880469,
2014-07-10, 07:48:04,VALID,916.968,VALID,0,VALID,89.7429,VALID,90.6803,VALID,20.2504,VALID,179,VALID,1.01172,
2014-07-10, 07:49:04,VALID,916.971,VALID,0,VALID,89.6285,VALID,98.2012,VALID,20.2504,VALID,177,VALID,0.83125,
2014-07-10, 07:50:04,VALID,916.94,VALID,0,VALID,89.8191,VALID,107.549,VALID,20.2489,VALID,163,VALID,1.00625,
2014-07-10, 07:51:04,VALID,916.959,VALID,0,VALID,90.0478,VALID,115.822,VALID,20.3089,VALID,173,VALID,1.41562,
2014-07-10, 07:52:04,VALID,916.967,VALID,0,VALID,89.8953,VALID,120.979,VALID,20.3284,VALID,175,VALID,1.87852,
2014-07-10, 07:53:04,VALID,916.965,VALID,0,VALID,89.3464,VALID,121.086,VALID,20.3284,VALID,171,VALID,1.11055,
2014-07-10, 07:54:04,VALID,916.971,VALID,0,VALID,89.5523,VALID,118.615,VALID,20.4454,VALID,172,VALID,1.0875,
2014-07-10, 07:55:04,VALID,916.994,VALID,0,VALID,89.1025,VALID,116.896,VALID,20.465,VALID,170,VALID,1.21992,
2014-07-10, 07:56:04,VALID,916.991,VALID,0,VALID,88.9348,VALID,118.293,VALID,20.543,VALID,176,VALID,1.46094,
2014-07-10, 07:57:04,VALID,917,VALID,0,VALID,88.9043,VALID,122.59,VALID,20.543,VALID,169,VALID,0.826953,
2014-07-10, 07:58:04,VALID,917.016,VALID,0,VALID,88.668,VALID,128.177,VALID,20.5609,VALID,177,VALID,1.08984,
2014-07-10, 07:59:04,VALID,917.021,VALID,0,VALID,88.6832,VALID,130.971,VALID,20.5804,VALID,165,VALID,1.43789,
2014-07-10, 08:00:04,VALID,917.015,VALID,0,VALID,88.6527,VALID,137.632,VALID,20.6194,VALID,148,VALID,0.696875,
2014-07-10, 08:02:04,VALID,917.034,VALID,0,VALID,87.2729,VALID,139.244,VALID,20.678,VALID,166,VALID,1.27695,
2014-07-10, 08:03:04,VALID,917.069,VALID,0,VALID,86.9984,VALID,147.087,VALID,20.717,VALID,169,VALID,1.56875,
2014-07-10, 08:04:04,VALID,917.075,VALID,0,VALID,86.9451,VALID,158.153,VALID,20.7365,VALID,172,VALID,1.20586,
2014-07-10, 08:05:04,VALID,917.041,VALID,0,VALID,86.8993,VALID,173.947,VALID,20.7755,VALID,167,VALID,1.4082,
2014-07-10, 08:06:04,VALID,917.05,VALID,0,VALID,86.9222,VALID,195.113,VALID,20.8535,VALID,187,VALID,0.857813,
2014-07-10, 08:07:04,VALID,917.092,VALID,0,VALID,86.724,VALID,192.749,VALID,20.9511,VALID,175,VALID,0.825781,
2014-07-10, 08:08:04,VALID,917.054,VALID,0,VALID,86.4267,VALID,202.527,VALID,21.0486,VALID,166,VALID,0.661719,
2014-07-10, 08:09:04,VALID,917.023,VALID,0,VALID,85.954,VALID,214.99,VALID,21.125,VALID,165,VALID,0.829297,
2014-07-10, 08:10:04,VALID,917.039,VALID,0,VALID,85.0545,VALID,209.08,VALID,21.2437,VALID,169,VALID,1.3375,
2014-07-10, 08:11:04,VALID,917.045,VALID,0,VALID,85.245,VALID,317.274,VALID,21.2827,VALID,160,VALID,1.67773,
2014-07-10, 08:12:04,VALID,917.037,VALID,0,VALID,84.719,VALID,225.949,VALID,21.3022,VALID,163,VALID,1.19492,
2014-07-10, 08:13:04,VALID,917.044,VALID,0,VALID,85.2145,VALID,218.965,VALID,21.3608,VALID,172,VALID,1.26758,
2014-07-10, 08:14:04,VALID,917.047,VALID,0,VALID,84.0634,VALID,208.006,VALID,21.3998,VALID,158,VALID,1.14492,
2014-07-10, 08:15:04,VALID,917.049,VALID,0,VALID,84.1091,VALID,208.543,VALID,21.4583,VALID,155,VALID,0.742969,
2014-07-10, 08:16:04,VALID,917.054,VALID,0,VALID,83.4459,VALID,198.659,VALID,21.4567,VALID,122,VALID,1.27266,
2014-07-10, 08:17:04,VALID,917.092,VALID,0,VALID,84.2006,VALID,194.254,VALID,21.5363,VALID,181,VALID,0.801953,
2014-07-10, 08:18:04,VALID,917.064,VALID,0,VALID,82.8513,VALID,191.46,VALID,21.6144,VALID,150,VALID,0.942187,
2014-07-10, 08:19:04,VALID,917.114,VALID,0,VALID,82.7217,VALID,199.411,VALID,21.5949,VALID,165,VALID,1.24805,
2014-07-10, 08:20:04,VALID,917.106,VALID,0,VALID,83.484,VALID,204.568,VALID,21.5737,VALID,162,VALID,0.757813,
2014-07-10, 08:21:04,VALID,917.115,VALID,0,VALID,81.5782,VALID,181.253,VALID,21.5542,VALID,168,VALID,1.71406,
2014-07-10, 08:22:04,VALID,917.115,VALID,0,VALID,82.8437,VALID,189.634,VALID,21.5542,VALID,151,VALID,1.08906,
2014-07-10, 08:23:04,VALID,917.136,VALID,0,VALID,82.9351,VALID,180.609,VALID,21.5347,VALID,158,VALID,1.09883,
2014-07-10, 08:24:04,VALID,917.181,VALID,0,VALID,83.2934,VALID,180.179,VALID,21.5152,VALID,151,VALID,0.959375,
2014-07-10, 08:25:04,VALID,917.171,VALID,0,VALID,84.4522,VALID,183.295,VALID,21.5347,VALID,105,VALID,0.824219,
2014-07-10, 08:26:04,VALID,917.182,VALID,0,VALID,83.9109,VALID,309.001,VALID,21.6323,VALID,133,VALID,0.871875,
2014-07-10, 08:27:04,VALID,917.19,VALID,0,VALID,83.5755,VALID,192.427,VALID,21.6518,VALID,122,VALID,1.24297,
2014-07-10, 08:28:04,VALID,917.194,VALID,0,VALID,83.2248,VALID,358.961,VALID,21.6713,VALID,116,VALID,1.36758,
2014-07-10, 08:29:04,VALID,917.207,VALID,0,VALID,83.0571,VALID,199.841,VALID,21.6518,VALID,111,VALID,1.65352,
2014-07-10, 08:30:04,VALID,917.212,VALID,0,VALID,83.4307,VALID,172.228,VALID,21.6696,VALID,123,VALID,1.93047,
2014-07-10, 08:31:04,VALID,917.226,VALID,0,VALID,83.9491,VALID,174.592,VALID,21.6908,VALID,110,VALID,0.958203,
2014-07-10, 08:32:04,VALID,917.237,VALID,0,VALID,84.4293,VALID,193.179,VALID,21.7298,VALID,70,VALID,1.21133,
2014-07-10, 08:33:04,VALID,917.247,VALID,0,VALID,84.0558,VALID,168.683,VALID,21.7688,VALID,81,VALID,1.43047,
2014-07-10, 08:34:04,VALID,917.301,VALID,0,VALID,83.5069,VALID,168.253,VALID,21.7883,VALID,90,VALID,1.14805,
2014-07-10, 08:35:04,VALID,917.306,VALID,0,VALID,84.437,VALID,164.707,VALID,21.8469,VALID,103,VALID,0.797266,
2014-07-10, 08:36:04,VALID,917.339,VALID,0,VALID,84.2159,VALID,163.418,VALID,21.9249,VALID,121,VALID,0.544141,
2014-07-10, 08:37:04,VALID,917.323,VALID,0,VALID,83.8271,VALID,163.525,VALID,22.003,VALID,115,VALID,0.384766,
2014-07-10, 08:38:04,VALID,917.351,VALID,0,VALID,83.1105,VALID,166.749,VALID,22.1005,VALID,98,VALID,0.7875,
2014-07-10, 08:39:04,VALID,917.347,VALID,0,VALID,82.5159,VALID,171.046,VALID,22.1786,VALID,91,VALID,0.424219,
2014-07-10, 08:40:04,VALID,917.383,VALID,0,VALID,80.7167,VALID,172.873,VALID,22.1981,VALID,100,VALID,1.36836,
2014-07-10, 08:41:04,VALID,917.395,VALID,0,VALID,82.4015,VALID,173.947,VALID,22.1608,VALID,97,VALID,0.774219,
2014-07-10, 08:42:04,VALID,917.383,VALID,0,VALID,81.2885,VALID,173.303,VALID,22.1201,VALID,98,VALID,1.0625,
2014-07-10, 08:43:04,VALID,917.388,VALID,0,VALID,82.615,VALID,174.377,VALID,22.1396,VALID,98,VALID,0.417578,
2014-07-10, 08:44:04,VALID,917.398,VALID,0,VALID,82.8055,VALID,177.278,VALID,22.1981,VALID,96,VALID,0.558984,
2014-07-10, 08:45:04,VALID,917.357,VALID,0,VALID,82.432,VALID,181.576,VALID,22.3347,VALID,96,VALID,0.366016,
2014-07-10, 08:46:04,VALID,917.395,VALID,0,VALID,81.9822,VALID,187.807,VALID,22.4128,VALID,85,VALID,0.589844,
2014-07-10, 08:47:04,VALID,917.431,VALID,0,VALID,82.1271,VALID,191.782,VALID,22.5316,VALID,86,VALID,0.455859,
2014-07-10, 08:48:04,VALID,917.426,VALID,0,VALID,80.5719,VALID,193.824,VALID,22.5494,VALID,124,VALID,0.726563,
2014-07-10, 08:49:04,VALID,917.44,VALID,0,VALID,80.9226,VALID,195.435,VALID,22.5103,VALID,122,VALID,0.521094,
2014-07-10, 08:50:04,VALID,917.436,VALID,0,VALID,81.0293,VALID,198.766,VALID,22.5689,VALID,130,VALID,0.784766,
2014-07-10, 08:51:04,VALID,917.41,VALID,0,VALID,79.4131,VALID,207.254,VALID,22.5494,VALID,177,VALID,1.02734,
2014-07-10, 08:52:04,VALID,917.404,VALID,0,VALID,80.0382,VALID,207.791,VALID,22.5884,VALID,173,VALID,0.548047,
2014-07-10, 08:53:04,VALID,917.436,VALID,0,VALID,81.1818,VALID,208.006,VALID,22.6665,VALID,173,VALID,0.660547,
2014-07-10, 08:54:04,VALID,917.436,VALID,0,VALID,80.5261,VALID,204.138,VALID,22.725,VALID,173,VALID,0.596875,
2014-07-10, 08:55:04,VALID,917.411,VALID,0,VALID,80.0154,VALID,201.237,VALID,22.725,VALID,159,VALID,0.791406,
2014-07-10, 08:56:04,VALID,917.425,VALID,0,VALID,80.9607,VALID,204.783,VALID,22.7055,VALID,159,VALID,0.295703,
2014-07-10, 08:57:04,VALID,917.434,VALID,0,VALID,79.6495,VALID,388.722,VALID,22.7641,VALID,129,VALID,0.931641,
2014-07-10, 08:58:04,VALID,917.449,VALID,0,VALID,80.3508,VALID,223.8,VALID,22.8421,VALID,129,VALID,0.492578,
2014-07-10, 08:59:04,VALID,917.441,VALID,0,VALID,79.3293,VALID,206.18,VALID,22.9397,VALID,110,VALID,1.33945,
2014-07-10, 09:00:04,VALID,917.435,VALID,0,VALID,79.6418,VALID,203.494,VALID,22.9397,VALID,98,VALID,0.637109,
2014-07-10, 09:01:04,VALID,917.444,VALID,0,VALID,79.8095,VALID,194.898,VALID,23.0373,VALID,98,VALID,0.0140625,
2014-07-10, 09:02:04,VALID,917.43,VALID,0,VALID,79.0091,VALID,194.361,VALID,23.1136,VALID,118,VALID,0.586719,
2014-07-10, 09:03:04,VALID,917.438,VALID,0,VALID,77.9189,VALID,203.064,VALID,23.1739,VALID,135,VALID,0.425781,
2014-07-10, 09:04:04,VALID,917.401,VALID,0,VALID,78.5517,VALID,215.097,VALID,23.213,VALID,135,VALID,0.528125,
2014-07-10, 09:05:04,VALID,917.442,VALID,0,VALID,78.3077,VALID,248.082,VALID,23.3106,VALID,134,VALID,0.473047,
2014-07-10, 09:06:04,VALID,917.453,VALID,0,VALID,77.6902,VALID,257.751,VALID,23.3301,VALID,135,VALID,0.325781,
2014-07-10, 09:07:04,VALID,917.456,VALID,0,VALID,77.2176,VALID,267.099,VALID,23.3691,VALID,169,VALID,0.574219,
2014-07-10, 09:08:04,VALID,917.47,VALID,0,VALID,76.9813,VALID,250.445,VALID,23.3106,VALID,151,VALID,0.821094,
2014-07-10, 09:09:04,VALID,917.465,VALID,0,VALID,77.8732,VALID,244.214,VALID,23.252,VALID,159,VALID,0.545703,
2014-07-10, 09:10:04,VALID,917.468,VALID,0,VALID,76.5086,VALID,258.074,VALID,23.2893,VALID,181,VALID,0.970703,
2014-07-10, 09:11:04,VALID,917.501,VALID,0,VALID,77.0727,VALID,270.107,VALID,23.2893,VALID,173,VALID,0.572266,
2014-07-10, 09:12:04,VALID,917.492,VALID,0,VALID,76.6916,VALID,273.115,VALID,23.4082,VALID,164,VALID,0.490625,
2014-07-10, 09:13:04,VALID,917.461,VALID,0,VALID,76.2647,VALID,272.148,VALID,23.3674,VALID,166,VALID,0.674609,
2014-07-10, 09:14:04,VALID,917.482,VALID,0,VALID,76.5696,VALID,254.636,VALID,23.465,VALID,178,VALID,0.728906,
2014-07-10, 09:15:04,VALID,917.466,VALID,0,VALID,75.6929,VALID,241.635,VALID,23.5626,VALID,178,VALID,0.533203,
2014-07-10, 09:16:04,VALID,917.471,VALID,0,VALID,75.5099,VALID,229.817,VALID,23.5235,VALID,194,VALID,0.861328,
2014-07-10, 09:17:04,VALID,917.495,VALID,0,VALID,76.7449,VALID,220.039,VALID,23.4259,VALID,194,VALID,0.585547,
2014-07-10, 09:18:04,VALID,917.449,VALID,0,VALID,77.6674,VALID,211.229,VALID,23.4259,VALID,190,VALID,0.355859,
2014-07-10, 09:19:04,VALID,917.46,VALID,0,VALID,75.8225,VALID,205.213,VALID,23.4241,VALID,180,VALID,0.472266,
2014-07-10, 09:20:04,VALID,917.471,VALID,0,VALID,74.6409,VALID,203.064,VALID,23.543,VALID,180,VALID,0.667969,
2014-07-10, 09:21:04,VALID,917.418,VALID,0,VALID,75.5862,VALID,205.32,VALID,23.5235,VALID,180,VALID,0.726953,
2014-07-10, 09:22:04,VALID,917.404,VALID,0,VALID,75.6014,VALID,213.056,VALID,23.5626,VALID,192,VALID,0.949219,
2014-07-10, 09:23:04,VALID,917.413,VALID,0,VALID,76.3638,VALID,223.8,VALID,23.6034,VALID,186,VALID,0.661719,
2014-07-10, 09:24:04,VALID,917.418,VALID,0,VALID,75.4413,VALID,238.304,VALID,23.5217,VALID,176,VALID,0.551953,
2014-07-10, 09:25:04,VALID,917.41,VALID,0,VALID,75.9445,VALID,284.289,VALID,23.6016,VALID,179,VALID,0.534766,
2014-07-10, 09:26:04,VALID,917.405,VALID,0,VALID,75.3651,VALID,362.829,VALID,23.5998,VALID,180,VALID,0.479297,
2014-07-10, 09:27:04,VALID,917.406,VALID,0,VALID,76.3942,VALID,635.085,VALID,23.7578,VALID,181,VALID,0.467969,
2014-07-10, 09:28:04,VALID,917.394,VALID,0,VALID,74.8315,VALID,535.272,VALID,23.953,VALID,183,VALID,0.577344,
2014-07-10, 09:29:04,VALID,917.403,VALID,0,VALID,72.3843,VALID,495.089,VALID,24.1464,VALID,194,VALID,0.755469,
2014-07-10, 09:30:04,VALID,917.451,VALID,0,VALID,70.3946,VALID,495.626,VALID,24.3026,VALID,195,VALID,1.15078,
2014-07-10, 09:31:04,VALID,917.445,VALID,0,VALID,70.8673,VALID,499.279,VALID,24.402,VALID,194,VALID,0.99375,
2014-07-10, 09:32:04,VALID,917.467,VALID,0,VALID,71.6982,VALID,392.16,VALID,24.4978,VALID,171,VALID,0.648828,
2014-07-10, 09:33:04,VALID,917.473,VALID,0,VALID,72.3081,VALID,421.062,VALID,24.6345,VALID,178,VALID,0.519531,
2014-07-10, 09:34:04,VALID,917.479,VALID,0,VALID,71.6372,VALID,437.5,VALID,24.7554,VALID,174,VALID,0.905469,
2014-07-10, 09:35:04,VALID,917.496,VALID,0,VALID,69.1215,VALID,402.797,VALID,24.5973,VALID,188,VALID,1.71914,
2014-07-10, 09:36:04,VALID,917.438,VALID,0,VALID,70.3946,VALID,621.225,VALID,24.5778,VALID,189,VALID,0.851563,
2014-07-10, 09:37:04,VALID,917.465,VALID,0,VALID,71.5381,VALID,641.316,VALID,24.5387,VALID,166,VALID,1.16992,
2014-07-10, 09:38:04,VALID,917.474,VALID,0,VALID,69.2664,VALID,349.506,VALID,24.5387,VALID,179,VALID,1.83906,
2014-07-10, 09:39:04,VALID,917.451,VALID,0,VALID,70.8749,VALID,288.05,VALID,24.5192,VALID,176,VALID,1.08086,
2014-07-10, 09:40:04,VALID,917.466,VALID,0,VALID,72.0641,VALID,375.829,VALID,24.5192,VALID,155,VALID,0.982813,
2014-07-10, 09:41:04,VALID,917.448,VALID,0,VALID,72.6054,VALID,523.883,VALID,24.5406,VALID,150,VALID,1.03945,
2014-07-10, 09:42:04,VALID,917.423,VALID,0,VALID,71.3247,VALID,577.281,VALID,24.6168,VALID,153,VALID,0.547656,
2014-07-10, 09:43:04,VALID,917.415,VALID,0,VALID,71.9422,VALID,447.385,VALID,24.4801,VALID,153,VALID,1.16406,
2014-07-10, 09:44:04,VALID,917.43,VALID,0,VALID,71.3933,VALID,548.809,VALID,24.4997,VALID,173,VALID,1.18086,
2014-07-10, 09:45:04,VALID,917.422,VALID,0,VALID,71.3857,VALID,506.155,VALID,24.5564,VALID,165,VALID,0.846484,
2014-07-10, 09:46:04,VALID,917.403,VALID,0,VALID,72.3996,VALID,390.011,VALID,24.6559,VALID,145,VALID,0.820703,
2014-07-10, 09:47:04,VALID,917.429,VALID,0,VALID,71.6372,VALID,334.894,VALID,24.734,VALID,155,VALID,0.642578,
2014-07-10, 09:48:04,VALID,917.399,VALID,0,VALID,71.5763,VALID,390.441,VALID,24.8688,VALID,170,VALID,1.38242,
2014-07-10, 09:49:04,VALID,917.459,VALID,0,VALID,67.9246,VALID,415.582,VALID,24.7321,VALID,177,VALID,1.22773,
2014-07-10, 09:50:04,VALID,917.444,VALID,0,VALID,70.3184,VALID,429.979,VALID,24.6735,VALID,170,VALID,0.770703,
2014-07-10, 09:51:04,VALID,917.495,VALID,0,VALID,71.0655,VALID,434.599,VALID,24.6735,VALID,168,VALID,0.622266,
2014-07-10, 09:52:04,VALID,917.462,VALID,0,VALID,69.3197,VALID,413.326,VALID,24.7144,VALID,116,VALID,1.22266,
2014-07-10, 09:53:04,VALID,917.515,VALID,0,VALID,70.7834,VALID,415.26,VALID,24.773,VALID,67,VALID,1.26484,
2014-07-10, 09:54:04,VALID,917.513,VALID,0,VALID,69.8915,VALID,409.458,VALID,24.9683,VALID,85,VALID,0.759375,
2014-07-10, 09:55:04,VALID,917.49,VALID,0,VALID,69.2054,VALID,387.003,VALID,24.9878,VALID,85,VALID,0.837109,
2014-07-10, 09:56:04,VALID,917.534,VALID,0,VALID,69.0148,VALID,370.565,VALID,25.0483,VALID,85,VALID,0.526172,
2014-07-10, 09:57:04,VALID,917.492,VALID,0,VALID,70.1354,VALID,368.523,VALID,25.1245,VALID,81,VALID,0.887891,
2014-07-10, 09:58:04,VALID,917.488,VALID,0,VALID,67.4291,VALID,370.242,VALID,25.2027,VALID,65,VALID,1.3875,
2014-07-10, 09:59:04,VALID,917.492,VALID,0,VALID,68.0695,VALID,364.44,VALID,25.357,VALID,65,VALID,0.809375,
2014-07-10, 10:00:04,VALID,917.493,VALID,0,VALID,66.682,VALID,371.317,VALID,25.3198,VALID,121,VALID,0.726172,
2014-07-10, 10:01:04,VALID,917.456,VALID,0,VALID,67.9018,VALID,387.863,VALID,25.2417,VALID,89,VALID,1.39375,
2014-07-10, 10:02:04,VALID,917.476,VALID,0,VALID,66.5982,VALID,407.095,VALID,25.3589,VALID,77,VALID,0.802344,
2014-07-10, 10:03:04,VALID,917.467,VALID,0,VALID,67.6807,VALID,393.342,VALID,25.3765,VALID,105,VALID,0.564844,
2014-07-10, 10:04:04,VALID,917.478,VALID,0,VALID,67.7188,VALID,358.746,VALID,25.4175,VALID,105,VALID,0.698828,
2014-07-10, 10:05:04,VALID,917.458,VALID,0,VALID,67.3148,VALID,340.159,VALID,25.4565,VALID,104,VALID,0.698828,
2014-07-10, 10:06:04,VALID,917.449,VALID,0,VALID,68.0771,VALID,325.332,VALID,25.4565,VALID,151,VALID,1.19141,
2014-07-10, 10:07:04,VALID,917.454,VALID,0,VALID,68.4659,VALID,320.497,VALID,25.3784,VALID,165,VALID,0.717578,
2014-07-10, 10:08:04,VALID,917.46,VALID,0,VALID,67.4444,VALID,319.423,VALID,25.3784,VALID,165,VALID,0.738281,
2014-07-10, 10:09:04,VALID,917.449,VALID,0,VALID,66.0569,VALID,322.109,VALID,25.2398,VALID,170,VALID,1.48086,
2014-07-10, 10:10:04,VALID,917.434,VALID,0,VALID,66.2399,VALID,326.621,VALID,25.0445,VALID,160,VALID,1.26484,
2014-07-10, 10:11:04,VALID,917.44,VALID,0,VALID,69.03,VALID,329.092,VALID,24.9488,VALID,160,VALID,0.839453,
2014-07-10, 10:12:04,VALID,917.466,VALID,0,VALID,67.9323,VALID,332.96,VALID,24.9878,VALID,175,VALID,0.917188,
2014-07-10, 10:13:04,VALID,917.404,VALID,0,VALID,68.6946,VALID,339.621,VALID,24.9078,VALID,172,VALID,0.887109,